This is the latest recevied weather packets stored in our database for station/object DG4MJS-10. If no packets are shown the sender has not sent any weather packets the latest 10 day(s).
| Time | Temp. | Humidity | Pressure | Rain* | Wind** | Luminosity | Snow |
|---|---|---|---|---|---|---|---|
| 1787997574 | 20.56° C | 57% | 1017.9 hPa | - | - | - | - |
| 1787996674 | 20.56° C | 57% | 1018.1 hPa | - | - | - | - |
| 1787995774 | 20° C | 57% | 1018.2 hPa | - | - | - | - |
| 1787994874 | 20° C | 59% | 1018.2 hPa | - | - | - | - |
| 1787993974 | 20° C | 58% | 1018.3 hPa | - | - | - | - |
| 1787993074 | 20° C | 60% | 1018.2 hPa | - | - | - | - |
| 1787992174 | 19.44° C | 60% | 1018.2 hPa | - | - | - | - |
| 1787991274 | 19.44° C | 62% | 1018.3 hPa | - | - | - | - |
| 1787990374 | 19.44° C | 66% | 1018.2 hPa | - | - | - | - |
| 1787989474 | 19.44° C | 65% | 1018.1 hPa | - | - | - | - |
| 1787988574 | 18.89° C | 67% | 1018.1 hPa | - | - | - | - |
| 1787987674 | 18.89° C | 69% | 1018.1 hPa | - | - | - | - |
| 1787986773 | 18.89° C | 72% | 1018.1 hPa | - | - | - | - |
| 1787985873 | 18.33° C | 72% | 1018.3 hPa | - | - | - | - |
| 1787984973 | 18.33° C | 72% | 1018.2 hPa | - | - | - | - |
| 1787984073 | 17.78° C | 72% | 1018 hPa | - | - | - | - |
| 1787983173 | 17.78° C | 71% | 1018.2 hPa | - | - | - | - |
| 1787982273 | 17.22° C | 72% | 1018 hPa | - | - | - | - |
| 1787981373 | 17.22° C | 70% | 1018 hPa | - | - | - | - |
| 1787980473 | 16.67° C | 69% | 1017.9 hPa | - | - | - | - |
| 1787979572 | 17.22° C | 68% | 1017.9 hPa | - | - | - | - |
| 1787978672 | 17.22° C | 69% | 1017.9 hPa | - | - | - | - |
| 1787977772 | 17.22° C | 68% | 1017.8 hPa | - | - | - | - |
| 1787976873 | 16.67° C | 72% | 1017.6 hPa | - | - | - | - |
| 1787975972 | 17.22° C | 71% | 1017.6 hPa | - | - | - | - |
* Rain since midnight (hover to see other rain measurements)
** Current wind speed in m/s (hover to see current wind gust speed)